Location: Normandy Village
(37.8755°N, 122.2655°W)
Time: 16:31:01
(UTC+00:00)

Cosmos 1975 - Pass Details

Date: 22 September 2019
Orbit: 543 x 561 km, 82.5° (Epoch: 14 October)

Event Time Altitude Azimuth Distance (km) Brightness Sun altitude
Rises 12:53:10 0° 358° (N) 2,745 6.5 -13.3°
Reaches altitude 10° 12:55:24 10° 4° (N) 1,849 5.7 -12.9°
Maximum altitude 12:59:21 49° 80° (E) 728 3.9 -12.1°
Drops below altitude 10° 13:03:17 10° 156° (SSE) 1,841 5.7 -11.3°
Sets 13:05:30 0° 162° (SSE) 2,733 6.5 -10.9°
